SWA711 KSAN-KOAK

Flight info

Callsign SWA711
Flight time 1h 4m
Altitude 38000
Route PADRZ2 OROSZ DCT COREZ DCT RGOOD EMZOH4
Aircraft B737/M-SDE2E3FGHIRWXY/LB1

Departure

Time 2026-04-26 10:29
Airport San Diego International Airport (KSAN)

Arrival

Time 2026-04-26 11:33
Airport San Francisco Bay Oakland International Airport (KOAK)
Time Latitude Longitude Altitude Speed Heading
2026-04-26 10:14 32.73349 -117.20060 20 ft 0 kts 262°
2026-04-26 10:21 32.73350 -117.20049 20 ft 4 kts 262°
2026-04-26 10:21 32.73354 -117.20017 20 ft 4 kts 262°
2026-04-26 10:22 32.73356 -117.20002 21 ft 4 kts 273°
2026-04-26 10:22 32.73349 -117.19984 21 ft 4 kts 358°
2026-04-26 10:22 32.73324 -117.19989 22 ft 3 kts 13°
2026-04-26 10:22 32.73321 -117.19990 22 ft 1 kts 13°
2026-04-26 10:24 32.73332 -117.19987 24 ft 6 kts 13°
2026-04-26 10:24 32.73408 -117.19966 21 ft 15 kts 13°
2026-04-26 10:24 32.73470 -117.19936 22 ft 10 kts 44°
2026-04-26 10:25 32.73463 -117.19827 23 ft 18 kts 105°
2026-04-26 10:25 32.73420 -117.19649 22 ft 27 kts 106°
2026-04-26 10:25 32.73368 -117.19436 22 ft 26 kts 106°
2026-04-26 10:25 32.73320 -117.19238 19 ft 24 kts 106°
2026-04-26 10:26 32.73274 -117.19052 21 ft 23 kts 106°
2026-04-26 10:26 32.73231 -117.18874 22 ft 22 kts 105°
2026-04-26 10:26 32.73187 -117.18691 25 ft 25 kts 105°
2026-04-26 10:26 32.73135 -117.18476 20 ft 28 kts 106°
2026-04-26 10:27 32.73082 -117.18257 19 ft 27 kts 106°
2026-04-26 10:27 32.73032 -117.18053 16 ft 25 kts 105°
2026-04-26 10:27 32.72987 -117.17866 15 ft 23 kts 106°
2026-04-26 10:27 32.72953 -117.17725 17 ft 12 kts 105°
2026-04-26 10:28 32.72961 -117.17638 20 ft 10 kts 72°
2026-04-26 10:28 32.72987 -117.17573 21 ft 8 kts 30°
2026-04-26 10:28 32.73028 -117.17612 18 ft 9 kts 294°
2026-04-26 10:28 32.73074 -117.17794 19 ft 54 kts 286°
2026-04-26 10:29 32.73248 -117.18519 23 ft 125 kts 286°
2026-04-26 10:29 32.73531 -117.19685 297 ft 155 kts 285°
2026-04-26 10:29 32.73814 -117.20916 1050 ft 160 kts 285°
2026-04-26 10:29 32.74359 -117.22079 1741 ft 166 kts 304°
2026-04-26 10:30 32.75058 -117.23283 2097 ft 194 kts 302°
2026-04-26 10:30 32.75871 -117.24711 2348 ft 221 kts 302°
2026-04-26 10:30 32.76784 -117.26313 2615 ft 246 kts 302°
2026-04-26 10:30 32.77754 -117.28014 3365 ft 253 kts 302°
2026-04-26 10:31 32.78745 -117.29749 4307 ft 254 kts 302°
2026-04-26 10:31 32.79742 -117.31491 5200 ft 257 kts 303°
2026-04-26 10:31 32.80806 -117.33210 6124 ft 260 kts 305°
2026-04-26 10:31 32.81916 -117.34921 7087 ft 262 kts 305°
2026-04-26 10:32 32.83045 -117.36650 7981 ft 268 kts 305°
2026-04-26 10:32 32.84192 -117.38416 8917 ft 272 kts 305°
2026-04-26 10:32 32.85354 -117.40212 9897 ft 275 kts 304°
2026-04-26 10:32 32.86537 -117.42043 10627 ft 289 kts 304°
2026-04-26 10:33 32.87819 -117.44038 10923 ft 315 kts 303°
2026-04-26 10:33 32.89169 -117.46135 11676 ft 323 kts 303°
2026-04-26 10:33 32.90547 -117.48271 12627 ft 325 kts 303°
2026-04-26 10:33 32.91927 -117.50412 13607 ft 327 kts 302°
2026-04-26 10:34 32.93321 -117.52579 14501 ft 331 kts 302°
2026-04-26 10:34 32.94708 -117.54741 15423 ft 334 kts 301°
2026-04-26 10:34 32.96124 -117.56949 16370 ft 337 kts 301°
2026-04-26 10:34 32.97553 -117.59180 17241 ft 340 kts 301°
2026-04-26 10:35 32.99000 -117.61440 18069 ft 345 kts 301°
2026-04-26 10:35 33.00461 -117.63721 18907 ft 348 kts 300°
2026-04-26 10:35 33.01933 -117.66021 19735 ft 350 kts 300°
2026-04-26 10:35 33.03421 -117.68346 20566 ft 353 kts 300°
2026-04-26 10:36 33.04890 -117.70644 21320 ft 356 kts 299°
2026-04-26 10:36 33.06420 -117.72989 22013 ft 363 kts 303°
2026-04-26 10:36 33.08280 -117.75109 22747 ft 374 kts 310°
2026-04-26 10:36 33.10293 -117.77099 23472 ft 377 kts 311°
2026-04-26 10:37 33.12339 -117.79090 24109 ft 381 kts 311°
2026-04-26 10:37 33.14388 -117.81117 24726 ft 384 kts 310°
2026-04-26 10:37 33.16437 -117.83183 25332 ft 387 kts 309°
2026-04-26 10:37 33.18489 -117.85272 25920 ft 390 kts 309°
2026-04-26 10:38 33.20542 -117.87351 26481 ft 393 kts 310°
2026-04-26 10:38 33.22665 -117.89439 27029 ft 397 kts 310°
2026-04-26 10:38 33.24820 -117.91532 27569 ft 400 kts 310°
2026-04-26 10:38 33.26997 -117.93642 28087 ft 403 kts 310°
2026-04-26 10:39 33.29180 -117.95762 28562 ft 406 kts 310°
2026-04-26 10:39 33.31381 -117.97905 28987 ft 410 kts 310°
2026-04-26 10:39 33.33598 -118.00068 29482 ft 411 kts 310°
2026-04-26 10:39 33.35795 -118.02214 29953 ft 413 kts 310°
2026-04-26 10:40 33.38022 -118.04394 30381 ft 415 kts 310°
2026-04-26 10:40 33.40271 -118.06599 30755 ft 418 kts 310°
2026-04-26 10:40 33.42528 -118.08813 31090 ft 421 kts 310°
2026-04-26 10:40 33.44806 -118.11050 31435 ft 424 kts 310°
2026-04-26 10:41 33.47089 -118.13290 31815 ft 425 kts 310°
2026-04-26 10:41 33.49381 -118.15538 32254 ft 425 kts 310°
2026-04-26 10:41 33.51660 -118.17775 32756 ft 422 kts 310°
2026-04-26 10:41 33.53926 -118.20003 33242 ft 420 kts 310°
2026-04-26 10:42 33.56184 -118.22226 33622 ft 420 kts 310°
2026-04-26 10:42 33.58583 -118.24290 33975 ft 436 kts 322°
2026-04-26 10:42 33.61320 -118.25813 34391 ft 440 kts 325°
2026-04-26 10:42 33.64125 -118.27292 34762 ft 440 kts 325°
2026-04-26 10:43 33.66932 -118.28785 34995 ft 442 kts 325°
2026-04-26 10:43 33.69748 -118.30312 35226 ft 443 kts 324°
2026-04-26 10:43 33.72555 -118.31854 35580 ft 442 kts 324°
2026-04-26 10:43 33.75346 -118.33395 35952 ft 439 kts 324°
2026-04-26 10:44 33.78134 -118.34900 36210 ft 442 kts 326°
2026-04-26 10:44 33.80945 -118.36327 36367 ft 446 kts 327°
2026-04-26 10:44 33.83831 -118.37755 36615 ft 447 kts 327°
2026-04-26 10:44 33.86711 -118.39179 36898 ft 447 kts 327°
2026-04-26 10:45 33.89579 -118.40607 37235 ft 445 kts 327°
2026-04-26 10:45 33.92423 -118.42035 37649 ft 441 kts 327°
2026-04-26 10:45 33.95243 -118.43460 37993 ft 439 kts 327°
2026-04-26 10:45 33.98066 -118.44893 38155 ft 441 kts 327°
2026-04-26 10:46 34.00903 -118.46335 38300 ft 443 kts 327°
2026-04-26 10:46 34.03752 -118.47782 38526 ft 444 kts 327°
2026-04-26 10:46 34.06569 -118.49211 38746 ft 444 kts 328°
2026-04-26 10:46 34.09423 -118.50662 38913 ft 446 kts 328°
2026-04-26 10:47 34.12291 -118.52125 39063 ft 447 kts 328°
2026-04-26 10:47 34.15169 -118.53589 39302 ft 447 kts 328°
2026-04-26 10:47 34.18032 -118.55043 39588 ft 445 kts 328°
2026-04-26 10:47 34.20851 -118.56478 39743 ft 446 kts 328°
2026-04-26 10:48 34.23723 -118.57945 39867 ft 448 kts 328°
2026-04-26 10:48 34.26601 -118.59415 39932 ft 449 kts 328°
2026-04-26 10:48 34.32374 -118.62354 39938 ft 449 kts 329°
2026-04-26 10:49 34.38158 -118.65176 39944 ft 447 kts 329°
2026-04-26 10:49 34.43867 -118.68041 39931 ft 442 kts 325°
2026-04-26 10:50 34.48331 -118.71028 39946 ft 434 kts 320°
2026-04-26 10:50 34.54321 -118.75469 39933 ft 434 kts 320°
2026-04-26 10:51 34.62130 -118.81135 39927 ft 436 kts 321°
2026-04-26 10:52 34.67375 -118.84867 39914 ft 437 kts 321°
2026-04-26 10:52 34.72581 -118.88564 39931 ft 437 kts 321°
2026-04-26 10:53 34.77837 -118.92304 39929 ft 438 kts 322°
2026-04-26 10:53 34.83095 -118.96052 39928 ft 440 kts 322°
2026-04-26 10:54 34.91051 -119.01736 39933 ft 444 kts 322°
2026-04-26 10:54 34.96393 -119.05559 39926 ft 445 kts 322°
2026-04-26 10:55 35.01699 -119.09359 39929 ft 445 kts 322°
2026-04-26 10:55 35.07026 -119.13182 39935 ft 444 kts 322°
2026-04-26 10:56 35.12340 -119.17002 39941 ft 443 kts 322°
2026-04-26 10:56 35.17647 -119.20824 39941 ft 441 kts 322°
2026-04-26 10:57 35.22908 -119.24617 39945 ft 441 kts 322°
2026-04-26 10:57 35.28198 -119.28437 39946 ft 440 kts 322°
2026-04-26 10:58 35.33470 -119.32251 39944 ft 440 kts 322°
2026-04-26 10:58 35.38737 -119.36068 39947 ft 439 kts 322°
2026-04-26 10:59 35.43966 -119.39864 39957 ft 439 kts 322°
2026-04-26 10:59 35.49243 -119.43698 39962 ft 440 kts 322°
2026-04-26 11:00 35.54517 -119.47536 39961 ft 441 kts 322°
2026-04-26 11:00 35.59369 -119.51931 39970 ft 433 kts 314°
2026-04-26 11:01 35.63967 -119.56740 39965 ft 434 kts 313°
2026-04-26 11:01 35.68581 -119.61545 39966 ft 435 kts 314°
2026-04-26 11:02 35.73232 -119.66328 39964 ft 436 kts 314°
2026-04-26 11:02 35.77869 -119.71085 39962 ft 437 kts 314°
2026-04-26 11:03 35.82534 -119.75879 39964 ft 437 kts 314°
2026-04-26 11:03 35.87207 -119.80689 39963 ft 437 kts 314°
2026-04-26 11:04 35.91851 -119.85522 39958 ft 435 kts 313°
2026-04-26 11:04 35.96267 -119.90556 39964 ft 434 kts 311°
2026-04-26 11:05 36.00645 -119.95697 39964 ft 434 kts 311°
2026-04-26 11:05 36.05038 -120.00835 39960 ft 433 kts 311°
2026-04-26 11:06 36.08692 -120.05087 39965 ft 433 kts 311°
2026-04-26 11:06 36.13797 -120.11021 39962 ft 433 kts 311°
2026-04-26 11:07 36.18191 -120.16137 39952 ft 433 kts 311°
2026-04-26 11:07 36.22574 -120.21247 39955 ft 433 kts 311°
2026-04-26 11:08 36.26934 -120.26340 39955 ft 433 kts 311°
2026-04-26 11:08 36.31330 -120.31483 39587 ft 439 kts 311°
2026-04-26 11:09 36.33557 -120.34093 39070 ft 439 kts 311°
2026-04-26 11:09 36.35772 -120.36689 38448 ft 438 kts 311°
2026-04-26 11:09 36.37958 -120.39254 37834 ft 436 kts 311°
2026-04-26 11:09 36.40164 -120.41842 37172 ft 435 kts 312°
2026-04-26 11:10 36.42357 -120.44419 36511 ft 434 kts 312°
2026-04-26 11:10 36.44549 -120.46997 35807 ft 434 kts 313°
2026-04-26 11:10 36.46749 -120.49588 35152 ft 433 kts 313°
2026-04-26 11:10 36.48925 -120.52152 34615 ft 429 kts 313°
2026-04-26 11:11 36.51080 -120.54693 34088 ft 425 kts 313°
2026-04-26 11:11 36.53192 -120.57185 33573 ft 422 kts 313°
2026-04-26 11:11 36.55310 -120.59686 33049 ft 418 kts 314°
2026-04-26 11:11 36.57417 -120.62177 32530 ft 415 kts 314°
2026-04-26 11:12 36.59501 -120.64641 32022 ft 411 kts 314°
2026-04-26 11:12 36.61569 -120.67088 31510 ft 408 kts 314°
2026-04-26 11:12 36.63620 -120.69518 31005 ft 405 kts 314°
2026-04-26 11:12 36.65655 -120.71931 30502 ft 402 kts 315°
2026-04-26 11:13 36.67644 -120.74291 30023 ft 399 kts 315°
2026-04-26 11:13 36.69646 -120.76669 29517 ft 395 kts 315°
2026-04-26 11:13 36.71635 -120.79033 29001 ft 392 kts 315°
2026-04-26 11:13 36.73597 -120.81368 28481 ft 389 kts 315°
2026-04-26 11:14 36.75552 -120.83695 27961 ft 386 kts 315°
2026-04-26 11:14 36.77491 -120.86004 27437 ft 383 kts 315°
2026-04-26 11:14 36.79411 -120.88292 26928 ft 380 kts 316°
2026-04-26 11:14 36.80680 -120.89806 26590 ft 379 kts 316°
2026-04-26 11:15 36.83212 -120.92828 25914 ft 375 kts 316°
2026-04-26 11:15 36.84457 -120.94315 25573 ft 373 kts 316°
2026-04-26 11:15 36.86331 -120.96554 25066 ft 371 kts 316°
2026-04-26 11:15 36.88791 -120.99497 24396 ft 368 kts 316°
2026-04-26 11:16 36.90041 -121.00993 24048 ft 367 kts 316°
2026-04-26 11:16 36.92471 -121.03903 23384 ft 364 kts 316°
2026-04-26 11:16 36.94292 -121.06086 22879 ft 362 kts 316°
2026-04-26 11:16 36.95494 -121.07527 22552 ft 360 kts 316°
2026-04-26 11:17 36.97300 -121.09695 22054 ft 358 kts 316°
2026-04-26 11:17 36.99091 -121.11846 21553 ft 355 kts 316°
2026-04-26 11:17 37.00870 -121.13985 21049 ft 352 kts 316°
2026-04-26 11:17 37.02634 -121.16105 20567 ft 350 kts 316°
2026-04-26 11:18 37.04384 -121.18210 20066 ft 347 kts 316°
2026-04-26 11:18 37.06100 -121.20276 19581 ft 344 kts 316°
2026-04-26 11:18 37.07817 -121.22346 19093 ft 342 kts 316°
2026-04-26 11:18 37.09520 -121.24399 18613 ft 338 kts 316°
2026-04-26 11:19 37.11211 -121.26440 18130 ft 336 kts 316°
2026-04-26 11:19 37.12885 -121.28462 17647 ft 333 kts 316°
2026-04-26 11:19 37.14548 -121.30471 17167 ft 330 kts 316°
2026-04-26 11:19 37.16198 -121.32464 16691 ft 328 kts 316°
2026-04-26 11:20 37.17831 -121.34440 16217 ft 325 kts 316°
2026-04-26 11:20 37.19451 -121.36400 15747 ft 323 kts 316°
2026-04-26 11:20 37.21040 -121.38325 15283 ft 320 kts 316°
2026-04-26 11:20 37.22635 -121.40259 14814 ft 318 kts 316°
2026-04-26 11:21 37.24224 -121.42184 14340 ft 316 kts 316°
2026-04-26 11:21 37.25798 -121.44095 13887 ft 314 kts 316°
2026-04-26 11:21 37.27366 -121.45999 13420 ft 311 kts 316°
2026-04-26 11:21 37.28917 -121.47884 12963 ft 309 kts 316°
2026-04-26 11:22 37.30457 -121.49756 12505 ft 307 kts 316°
2026-04-26 11:22 37.31985 -121.51616 12052 ft 305 kts 315°
2026-04-26 11:22 37.33487 -121.53444 11603 ft 303 kts 315°
2026-04-26 11:22 37.35000 -121.55286 11143 ft 302 kts 315°
2026-04-26 11:23 37.36505 -121.57120 10692 ft 300 kts 315°
2026-04-26 11:23 37.38002 -121.58945 10240 ft 298 kts 315°
2026-04-26 11:23 37.39475 -121.60740 10043 ft 288 kts 315°
2026-04-26 11:23 37.40899 -121.62479 9720 ft 284 kts 315°
2026-04-26 11:24 37.42299 -121.64189 9332 ft 283 kts 315°
2026-04-26 11:24 37.43710 -121.65912 8940 ft 282 kts 315°
2026-04-26 11:24 37.45117 -121.67632 8541 ft 281 kts 314°
2026-04-26 11:24 37.46515 -121.69344 8159 ft 280 kts 314°
2026-04-26 11:25 37.47912 -121.71053 7759 ft 280 kts 314°
2026-04-26 11:25 37.49296 -121.72748 7381 ft 279 kts 314°
2026-04-26 11:25 37.50693 -121.74460 6974 ft 279 kts 314°
2026-04-26 11:25 37.52081 -121.76161 6583 ft 277 kts 314°
2026-04-26 11:26 37.53283 -121.78023 6166 ft 273 kts 294°
2026-04-26 11:26 37.53944 -121.80239 5875 ft 267 kts 287°
2026-04-26 11:26 37.54525 -121.82453 5492 ft 266 kts 287°
2026-04-26 11:26 37.55096 -121.84661 5117 ft 264 kts 287°
2026-04-26 11:27 37.55657 -121.86819 4766 ft 262 kts 287°
2026-04-26 11:27 37.56226 -121.88994 4389 ft 260 kts 287°
2026-04-26 11:27 37.56811 -121.91145 4121 ft 255 kts 290°
2026-04-26 11:27 37.57469 -121.93153 4062 ft 241 kts 292°
2026-04-26 11:28 37.58108 -121.95030 3984 ft 224 kts 292°
2026-04-26 11:28 37.58703 -121.96785 3866 ft 210 kts 291°
2026-04-26 11:28 37.59258 -121.98429 3749 ft 197 kts 291°
2026-04-26 11:28 37.59767 -121.99953 3639 ft 185 kts 291°
2026-04-26 11:29 37.60254 -122.01417 3482 ft 177 kts 291°
2026-04-26 11:29 37.60726 -122.02839 3285 ft 176 kts 291°
2026-04-26 11:29 37.61199 -122.04266 3093 ft 177 kts 291°
2026-04-26 11:29 37.61674 -122.05702 2882 ft 177 kts 291°
2026-04-26 11:30 37.62144 -122.07129 2669 ft 175 kts 291°
2026-04-26 11:30 37.62456 -122.08076 2532 ft 176 kts 290°
2026-04-26 11:30 37.63084 -122.09984 2260 ft 179 kts 290°
2026-04-26 11:30 37.63575 -122.11411 2044 ft 176 kts 297°
2026-04-26 11:31 37.64301 -122.12640 1812 ft 171 kts 308°
2026-04-26 11:31 37.65055 -122.13750 1571 ft 161 kts 308°
2026-04-26 11:31 37.65747 -122.14787 1405 ft 145 kts 307°
2026-04-26 11:31 37.66395 -122.15765 1178 ft 145 kts 307°
2026-04-26 11:32 37.67035 -122.16730 990 ft 143 kts 308°
2026-04-26 11:32 37.67672 -122.17690 811 ft 142 kts 308°
2026-04-26 11:32 37.68290 -122.18622 632 ft 135 kts 307°
2026-04-26 11:32 37.68879 -122.19511 432 ft 131 kts 307°
2026-04-26 11:33 37.69464 -122.20392 285 ft 133 kts 307°
2026-04-26 11:33 37.70060 -122.21289 89 ft 133 kts 307°
2026-04-26 11:33 37.70631 -122.22150 8 ft 113 kts 310°
2026-04-26 11:33 37.70985 -122.22586 7 ft 30 kts 335°
2026-04-26 11:34 37.71122 -122.22620 9 ft 17 kts 12°
2026-04-26 11:34 37.71207 -122.22528 8 ft 16 kts 48°
2026-04-26 11:34 37.71277 -122.22430 8 ft 15 kts 48°
2026-04-26 11:34 37.71340 -122.22326 8 ft 15 kts 70°
2026-04-26 11:35 37.71307 -122.22213 8 ft 14 kts 129°
2026-04-26 11:35 37.71245 -122.22119 8 ft 14 kts 130°
2026-04-26 11:35 37.71186 -122.22030 9 ft 13 kts 130°
2026-04-26 11:35 37.71128 -122.21944 8 ft 13 kts 130°
2026-04-26 11:36 37.71080 -122.21856 8 ft 9 kts 100°
2026-04-26 11:36 37.71109 -122.21791 8 ft 9 kts 37°
2026-04-26 11:36 37.71130 -122.21744 8 ft 7 kts 111°
2026-04-26 11:36 37.71110 -122.21690 8 ft 7 kts 116°
2026-04-26 11:37 37.71102 -122.21670 8 ft 1 kts 116°
2026-04-26 11:37 37.71101 -122.21667 8 ft 0 kts 116°